| time (UTC) | temp C | wind direction | speed KPH | gust KPH | rain 1hr cm | rain 24hr cm | rain mn cm | humidity % | barometer mb |
| 20260506033036 | 4 | 141 | 0.0 | 8.0 | 0.00 | 0.00 | 0.00 | 51 | 1005.7 |
| 20260506031536 | 4 | 74 | 0.0 | 1.6 | 0.00 | 0.00 | 0.00 | 47 | 1005.1 |
| 20260506030036 | 4 | 68 | 0.0 | 3.2 | 0.00 | 0.00 | 0.00 | 49 | 1005.0 |
| 20260506024534 | 4 | 257 | 0.0 | 0.0 | 0.00 | 0.00 | 0.00 | 48 | 1004.6 |
| 20260506023039 | 5 | 257 | 0.0 | 0.0 | 0.00 | 0.00 | 0.00 | 46 | 1004.3 |
| 20260506021534 | 5 | 257 | 0.0 | 1.6 | 0.00 | 0.00 | 0.00 | 47 | 1004.3 |
| 20260506020106 | 5 | 266 | 0.0 | 6.4 | 0.00 | 0.00 | 0.00 | 43 | 1004.3 |
| 20260506014532 | 6 | 37 | 3.2 | 17.7 | 0.00 | 0.00 | 0.00 | 40 | 1004.1 |
| 20260506013032 | 7 | 58 | 3.2 | 11.3 | 0.00 | 0.00 | 0.00 | 38 | 1003.7 |
| 20260506011534 | 7 | 66 | 0.0 | 3.2 | 0.00 | 0.00 | 0.00 | 35 | 1003.5 |
| 20260506010031 | 8 | 110 | 1.6 | 6.4 | 0.00 | 0.00 | 0.00 | 34 | 1003.5 |
| 20260506004534 | 8 | 240 | 3.2 | 9.7 | 0.00 | 0.00 | 0.00 | 31 | 1003.4 |
| 20260506003030 | 10 | 279 | 1.6 | 8.0 | 0.00 | 0.00 | 0.00 | 30 | 1003.1 |
| 20260506001530 | 10 | 169 | 0.0 | 11.3 | 0.00 | 0.00 | 0.00 | 27 | 1003.2 |
| 20260506000043 | 10 | 285 | 1.6 | 8.0 | 0.00 | 0.00 | 0.00 | 28 | 1003.0 |
| 20260505234528 | 11 | 255 | 4.8 | 14.5 | 0.00 | 0.00 | 0.00 | 27 | 1003.0 |
| 20260505233028 | 11 | 110 | 0.0 | 11.3 | 0.00 | 0.00 | 0.00 | 25 | 1002.9 |
| 20260505231529 | 11 | 226 | 1.6 | 11.3 | 0.00 | 0.00 | 0.00 | 28 | 1003.0 |
| 20260505230039 | 11 | 255 | 0.0 | 9.7 | 0.00 | 0.00 | 0.00 | 27 | 1003.0 |
| 20260505224523 | 10 | 265 | 8.0 | 14.5 | 0.00 | 0.00 | 0.00 | 29 | 1003.1 |
| 20260505223021 | 10 | 138 | 0.0 | 17.7 | 0.00 | 0.00 | 0.00 | 30 | 1003.6 |
| 20260505221519 | 10 | 252 | 0.0 | 17.7 | 0.00 | 0.00 | 0.00 | 29 | 1003.5 |
| 20260505220017 | 11 | 43 | 3.2 | 11.3 | 0.00 | 0.00 | 0.00 | 27 | 1003.9 |
| 20260505214515 | 10 | 262 | 1.6 | 20.9 | 0.00 | 0.00 | 0.00 | 29 | 1004.0 |
| 20260505213016 | 10 | 79 | 6.4 | 17.7 | 0.00 | 0.00 | 0.00 | 30 | 1004.4 |
| 20260505211518 | 8 | 98 | 4.8 | 16.1 | 0.00 | 0.00 | 0.00 | 33 | 1004.6 |
| 20260505210012 | 10 | 5 | 1.6 | 24.1 | 0.00 | 0.00 | 0.00 | 34 | 1004.8 |
| 20260505204510 | 8 | 37 | 4.8 | 17.7 | 0.00 | 0.00 | 0.00 | 34 | 1005.1 |
| 20260505203110 | 10 | 238 | 1.6 | 12.9 | 0.00 | 0.00 | 0.00 | 29 | 1005.1 |
| 20260505201507 | 9 | 262 | 1.6 | 19.3 | 0.00 | 0.00 | 0.00 | 30 | 1005.3 |
| 20260505200006 | 9 | 50 | 0.0 | 12.9 | 0.00 | 0.00 | 0.00 | 30 | 1005.1 |
| 20260505194506 | 9 | 205 | 4.8 | 14.5 | 0.00 | 0.00 | 0.00 | 30 | 1005.2 |
| 20260505193003 | 10 | 3 | 3.2 | 12.9 | 0.00 | 0.00 | 0.00 | 29 | 1005.2 |
| 20260505191501 | 8 | 118 | 0.0 | 12.9 | 0.00 | 0.00 | 0.00 | 32 | 1005.4 |
| 20260505190001 | 8 | 129 | 3.2 | 11.3 | 0.00 | 0.00 | 0.00 | 35 | 1005.3 |
| 20260505184601 | 9 | 79 | 0.0 | 9.7 | 0.00 | 0.00 | 0.00 | 38 | 1005.4 |
| 20260505183059 | 9 | 250 | 1.6 | 8.0 | 0.00 | 0.00 | 0.00 | 35 | 1005.3 |
| 20260505181641 | 9 | 160 | 4.8 | 12.9 | 0.00 | 0.00 | 0.00 | 36 | 1005.3 |
| 20260505180105 | 8 | 117 | 3.2 | 16.1 | 0.00 | 0.00 | 0.00 | 39 | 1005.5 |
| 20260505174554 | 8 | 134 | 3.2 | 9.7 | 0.00 | 0.00 | 0.00 | 39 | 1005.7 |
| 20260505173052 | 8 | 245 | 4.8 | 12.9 | 0.00 | 0.00 | 0.00 | 39 | 1005.7 |
| 20260505171600 | 8 | 103 | 4.8 | 14.5 | 0.00 | 0.00 | 0.00 | 38 | 1005.6 |
| 20260505170052 | 9 | 114 | 3.2 | 12.9 | 0.00 | 0.00 | 0.00 | 38 | 1005.6 |
| 20260505164550 | 8 | 32 | 1.6 | 16.1 | 0.00 | 0.00 | 0.00 | 38 | 1005.4 |
| 20260505163048 | 8 | 253 | 1.6 | 11.3 | 0.00 | 0.00 | 0.00 | 39 | 1005.5 |
| 20260505161549 | 7 | 78 | 1.6 | 14.5 | 0.00 | 0.00 | 0.00 | 38 | 1005.4 |
| 20260505153042 | 6 | 237 | 0.0 | 4.8 | 0.00 | 0.00 | 0.00 | 45 | 1006.1 |
| 20260505151531 | 5 | 245 | 0.0 | 4.8 | 0.00 | 0.00 | 0.00 | 47 | 1006.0 |
| 20260505124514 | -1 | 66 | 0.0 | 0.0 | 0.00 | 0.03 | 0.00 | 76 | 1008.2 |
| 20260505123011 | 0 | 66 | 0.0 | 0.0 | 0.00 | 0.03 | 0.00 | 77 | 1008.3 |
| 20260505121510 | 0 | 66 | 0.0 | 0.0 | 0.00 | 0.03 | 0.00 | 76 | 1008.1 |
| 20260505120009 | 0 | 66 | 0.0 | 0.0 | 0.00 | 0.03 | 0.00 | 74 | 1007.8 |
| 20260505114509 | 0 | 55 | 0.0 | 1.6 | 0.00 | 0.03 | 0.00 | 76 | 1007.7 |
| 20260505113007 | 0 | 79 | 0.0 | 0.0 | 0.00 | 0.03 | 0.00 | 77 | 1007.8 |
| 20260505111506 | 0 | 46 | 0.0 | 3.2 | 0.00 | 0.03 | 0.00 | 73 | 1007.5 |
| 20260505101503 | 0 | 51 | 0.0 | 0.0 | 0.00 | 0.03 | 0.00 | 73 | 1007.9 |
| 20260505100100 | 0 | 51 | 0.0 | 0.0 | 0.00 | 0.03 | 0.00 | 73 | 1007.7 |
| 20260505094558 | 0 | 51 | 0.0 | 0.0 | 0.00 | 0.05 | 0.00 | 73 | 1007.6 |
| 20260505093057 | 0 | 51 | 0.0 | 0.0 | 0.00 | 0.05 | 0.00 | 70 | 1007.5 |
| 20260505091558 | 0 | 46 | 0.0 | 0.0 | 0.00 | 0.05 | 0.00 | 71 | 1007.9 |
| 20260505090058 | 0 | 46 | 0.0 | 0.0 | 0.00 | 0.05 | 0.00 | 70 | 1008.0 |
| 20260505084602 | 0 | 46 | 0.0 | 0.0 | 0.00 | 0.08 | 0.00 | 68 | 1007.9 |
| 20260505083105 | 0 | 46 | 0.0 | 1.6 | 0.00 | 0.08 | 0.00 | 69 | 1008.0 |
| 20260505081552 | 1 | 46 | 0.0 | 0.0 | 0.00 | 0.08 | 0.00 | 70 | 1008.4 |
| 20260505080055 | 1 | 46 | 0.0 | 0.0 | 0.00 | 0.08 | 0.00 | 72 | 1008.4 |
| 20260505074550 | 1 | 46 | 0.0 | 0.0 | 0.00 | 0.15 | 0.00 | 70 | 1008.3 |
| 20260505073057 | 1 | 46 | 0.0 | 0.0 | 0.00 | 0.15 | 0.00 | 70 | 1008.5 |
| 20260505071547 | 1 | 46 | 0.0 | 0.0 | 0.00 | 0.15 | 0.00 | 70 | 1008.5 |
| 20260505070044 | 1 | 223 | 0.0 | 1.6 | 0.00 | 0.15 | 0.00 | 69 | 1008.2 |
| 20260505064608 | 1 | 90 | 0.0 | 0.0 | 0.00 | 0.18 | 0.00 | 67 | 1008.3 |
| 20260505063040 | 2 | 90 | 0.0 | 0.0 | 0.00 | 0.18 | 0.00 | 70 | 1008.1 |
| 20260505061537 | 2 | 90 | 0.0 | 1.6 | 0.00 | 0.18 | 0.00 | 69 | 1007.8 |
| 20260505060034 | 2 | 90 | 0.0 | 0.0 | 0.00 | 0.18 | 0.00 | 65 | 1007.6 |
| 20260505054545 | 2 | 90 | 0.0 | 0.0 | 0.00 | 0.20 | 0.18 | 66 | 1007.6 |
| 20260505053034 | 2 | 90 | 0.0 | 1.6 | 0.00 | 0.20 | 0.18 | 66 | 1007.8 |
| 20260505051532 | 2 | 90 | 0.0 | 0.0 | 0.00 | 0.20 | 0.18 | 63 | 1007.8 |
| 20260505041529 | 3 | 90 | 0.0 | 0.0 | 0.00 | 0.20 | 0.18 | 58 | 1007.9 |
| 20260505040031 | 3 | 90 | 0.0 | 0.0 | 0.00 | 0.20 | 0.18 | 56 | 1008.1 |
| 20260505034533 | 3 | 90 | 0.0 | 0.0 | 0.00 | 0.20 | 0.18 | 55 | 1007.9 |